Home   Weather   Burg   Past weeks

Flag for Germany Past Weather in Burg, Saxony-Anhalt, Germany — Yesterday and Last 2 Weeks

Now
59 °F

Light rain. Mostly cloudy.


Feels Like: 58 °F
Forecast: 60 / 64 °F
Wind: 8 mph from North

Location: Braunschweig Wolfsburg

Current Time: Jul 25, 2017 at 10:57:42 pm

Latest Report: Jul 25, 2017 at 7:50 pm


Visibility: 3 mi

Pressure: 29.62 "Hg

Humidity: 100%

Dew Point: 59 °F

Location of BurgLocation

Past Weather in Burg — Graph

°F

Burg Temperature Yesterday

Maximum temperature yesterday: 68 °F (at 10:20 am)
Minimum temperature yesterday: 57 °F (at 7:20 am)
Average temperature yesterday: 63 °F

High & Low Weather Summary for the Past Weeks

 TemperatureHumidityPressure
High86 °F (Jul 19, 4:50 pm)100% (Jul 10, 7:20 pm)30.21 "Hg (Jul 10, 7:20 pm)
Low54 °F (Jul 13, 6:50 am)38% (Jul 14, 1:50 pm)29.62 "Hg (Jul 25, 3:20 pm)
Average67 °F78%29.93 "Hg
* Reported Jul 10 7:20 pm — Jul 25 7:50 pm, Burg. Weather by CustomWeather, © 2017

Note: Actual official high and low records may vary slightly from our data, if they occured in-between our weather recording intervals... More about our weather records

Advertising

Burg Weather History for the Previous 24 Hours

Scroll right to see more
 ConditionsComfort  
Time TempWeatherWind HumidityBarometerVisibility
7:50 pm
Tue, Jul 25
59 °FLight rain. Mostly cloudy.8 mph100%29.62 "Hg3 mi
7:20 pm61 °FMostly cloudy.7 mph100%29.62 "Hg4 mi
6:50 pm61 °FDrizzle. Partly sunny.5 mph100%29.62 "Hg3 mi
6:20 pm61 °FDrizzle. Broken clouds.3 mph100%29.62 "Hg4 mi
5:50 pm61 °FDrizzle. Broken clouds.3 mph100%29.62 "HgN/A
5:20 pm61 °FBroken clouds.No wind100%29.62 "HgN/A
4:50 pm61 °FPartly sunny.No wind100%29.62 "HgN/A
4:20 pm61 °FLight rain. Broken clouds.6 mph100%29.62 "HgN/A
3:50 pm63 °FRain. Partly sunny.5 mph100%29.62 "Hg4 mi
3:20 pm63 °FLight rain. Broken clouds.3 mph100%29.62 "Hg5 mi
2:50 pm63 °FPartly sunny.3 mph100%29.65 "HgN/A
2:20 pm63 °FPartly sunny.3 mph100%29.65 "HgN/A
1:50 pm61 °FDrizzle. Cloudy.3 mph100%29.65 "HgN/A
1:20 pm61 °FMore clouds than sun.8 mph100%29.65 "HgN/A
12:50 pm61 °FDrizzle. More clouds than sun.8 mph100%29.65 "HgN/A
12:20 pm61 °FLight rain. Mostly cloudy.8 mph100%29.65 "HgN/A
11:50 am61 °FLight rain. More clouds than sun.7 mph100%29.65 "HgN/A
11:20 am61 °FLight rain. More clouds than sun.6 mph100%29.65 "HgN/A
10:50 am59 °FLight rain. More clouds than sun.7 mph100%29.65 "HgN/A
10:20 am59 °FLight rain. More clouds than sun.6 mph100%29.65 "HgN/A
9:50 am57 °FLight rain. Cloudy.6 mph100%29.65 "Hg3 mi
9:20 am57 °FLight rain. Cloudy.8 mph100%29.65 "Hg4 mi
8:50 am57 °FLight rain. Mostly cloudy.8 mph100%29.65 "Hg5 mi
8:20 am57 °FLight rain. Low clouds.6 mph100%29.65 "Hg5 mi
7:50 am57 °FLight rain. Mostly cloudy.5 mph100%29.68 "Hg6 mi
7:20 am55 °FLight rain. Mostly cloudy.6 mph100%29.68 "HgN/A
6:50 am55 °FDrizzle. Mostly cloudy.6 mph100%29.68 "HgN/A
10:20 pm
Mon, Jul 24
59 °FLight rain. Overcast.7 mph100%29.74 "Hg6 mi
Weather by CustomWeather, © 2017

See weather overviewHow to use our weather pages